EXS510 LKPR-EGNT

Flight info

Callsign EXS510
Flight time N/A
Altitude 38000
Route BALTU DCT DONAD DCT VARIK L602 SODRO DCT KATCE DCT EXOBA DCT AMSAN DCT MIMVA L602 NALAX L46 RIMTO
Aircraft B738/M-SDE2E3FGHIRWXY/LB1

Departure

Time 2026-05-04 10:02
Airport Václav Havel Airport Prague (LKPR)

Arrival

Time N/A
Airport Newcastle International Airport (EGNT)
Time Latitude Longitude Altitude Speed Heading
2026-05-04 09:25 50.10438 14.26586 1168 ft 0 kts 34°
2026-05-04 09:49 50.10394 14.26566 1173 ft 0 kts 304°
2026-05-04 09:53 50.10396 14.26562 1171 ft 4 kts 304°
2026-05-04 09:53 50.10431 14.26479 1171 ft 11 kts 303°
2026-05-04 09:53 50.10475 14.26377 1171 ft 11 kts 305°
2026-05-04 09:53 50.10519 14.26276 1169 ft 11 kts 303°
2026-05-04 09:54 50.10536 14.26161 1172 ft 11 kts 265°
2026-05-04 09:54 50.10520 14.26034 1171 ft 12 kts 238°
2026-05-04 09:54 50.10454 14.26073 1170 ft 12 kts 125°
2026-05-04 09:54 50.10405 14.26178 1171 ft 12 kts 125°
2026-05-04 09:55 50.10352 14.26284 1177 ft 15 kts 128°
2026-05-04 09:55 50.10289 14.26415 1176 ft 15 kts 126°
2026-05-04 09:55 50.10227 14.26542 1174 ft 14 kts 127°
2026-05-04 09:55 50.10167 14.26666 1176 ft 16 kts 127°
2026-05-04 09:56 50.10094 14.26817 1184 ft 17 kts 127°
2026-05-04 09:56 50.10020 14.26970 1194 ft 19 kts 127°
2026-05-04 09:56 50.09939 14.27138 1199 ft 19 kts 127°
2026-05-04 09:56 50.09859 14.27300 1201 ft 19 kts 133°
2026-05-04 09:57 50.09763 14.27450 1204 ft 20 kts 135°
2026-05-04 09:57 50.09657 14.27615 1207 ft 22 kts 135°
2026-05-04 09:57 50.09551 14.27779 1211 ft 21 kts 136°
2026-05-04 09:57 50.09446 14.27935 1215 ft 21 kts 134°
2026-05-04 09:58 50.09348 14.28091 1214 ft 20 kts 133°
2026-05-04 09:58 50.09251 14.28240 1212 ft 19 kts 138°
2026-05-04 09:58 50.09148 14.28266 1210 ft 5 kts 212°
2026-05-04 10:00 50.09727 14.26758 1208 ft 141 kts 307°
2026-05-04 10:00 50.10405 14.25326 1451 ft 173 kts 304°
2026-05-04 10:02 50.16804 14.12074 5398 ft 269 kts 307°
2026-05-04 10:04 50.20368 13.92088 10616 ft 311 kts 274°
2026-05-04 10:04 50.20561 13.88595 10836 ft 334 kts 274°
2026-05-04 10:04 50.20775 13.84915 11356 ft 345 kts 274°
2026-05-04 10:04 50.20997 13.81174 12099 ft 347 kts 274°
2026-05-04 10:05 50.21227 13.77414 12864 ft 349 kts 274°
2026-05-04 10:05 50.21459 13.73636 13584 ft 352 kts 274°
2026-05-04 10:05 50.21693 13.69811 14282 ft 355 kts 274°
2026-05-04 10:05 50.21930 13.65960 14993 ft 358 kts 274°
2026-05-04 10:06 50.22169 13.62067 15679 ft 361 kts 274°
2026-05-04 10:06 50.22408 13.58153 16330 ft 364 kts 274°
2026-05-04 10:06 50.22648 13.54192 16969 ft 368 kts 274°
2026-05-04 10:08 50.24103 13.29763 20466 ft 386 kts 274°
2026-05-04 10:08 50.24347 13.25573 20978 ft 389 kts 274°
2026-05-04 10:08 50.24592 13.21345 21488 ft 392 kts 274°
2026-05-04 10:08 50.24838 13.17080 21996 ft 395 kts 274°
2026-05-04 10:09 50.25083 13.12790 22461 ft 398 kts 274°
2026-05-04 10:09 50.25329 13.08469 22919 ft 401 kts 274°
2026-05-04 10:09 50.25575 13.04107 23372 ft 404 kts 274°
2026-05-04 10:09 50.25821 12.99722 23797 ft 407 kts 274°
2026-05-04 10:10 50.26067 12.95305 24219 ft 410 kts 274°
2026-05-04 10:10 50.26313 12.90851 24648 ft 412 kts 274°
2026-05-04 10:10 50.26558 12.86382 25068 ft 414 kts 274°
2026-05-04 10:10 50.26804 12.81883 25474 ft 417 kts 274°
2026-05-04 10:11 50.27049 12.77356 25879 ft 419 kts 274°
2026-05-04 10:11 50.27293 12.72813 26281 ft 421 kts 274°
2026-05-04 10:11 50.27536 12.68250 26666 ft 422 kts 274°
2026-05-04 10:11 50.27780 12.63659 27021 ft 425 kts 274°
2026-05-04 10:12 50.28022 12.59053 27359 ft 427 kts 274°
2026-05-04 10:12 50.28264 12.54413 27706 ft 429 kts 274°
2026-05-04 10:12 50.28506 12.49754 28048 ft 430 kts 274°
2026-05-04 10:12 50.28746 12.45087 28390 ft 432 kts 274°
2026-05-04 10:13 50.29058 12.40410 28695 ft 434 kts 279°
2026-05-04 10:13 50.29788 12.35808 28984 ft 438 kts 288°
2026-05-04 10:13 50.30983 12.31424 29277 ft 440 kts 295°
2026-05-04 10:13 50.32336 12.27120 29580 ft 442 kts 295°
2026-05-04 10:14 50.33672 12.22780 29863 ft 443 kts 294°
2026-05-04 10:14 50.34987 12.18408 30127 ft 445 kts 294°
2026-05-04 10:16 50.44697 11.88352 32519 ft 437 kts 295°
2026-05-04 10:16 50.46078 11.84115 32854 ft 436 kts 298°
2026-05-04 10:16 50.47755 11.80155 33179 ft 437 kts 307°
2026-05-04 10:16 50.49725 11.76509 33466 ft 437 kts 309°
2026-05-04 10:17 50.51721 11.72919 33734 ft 436 kts 309°
2026-05-04 10:17 50.53722 11.69334 33995 ft 436 kts 309°
2026-05-04 10:19 50.67527 11.44020 35568 ft 436 kts 308°
2026-05-04 10:19 50.69488 11.40379 35752 ft 436 kts 308°
2026-05-04 10:19 50.71450 11.36735 35962 ft 436 kts 308°
2026-05-04 10:19 50.73409 11.33090 36153 ft 436 kts 308°
2026-05-04 10:20 50.75373 11.29430 36329 ft 437 kts 308°
2026-05-04 10:20 50.77334 11.25770 36511 ft 437 kts 308°
2026-05-04 10:20 50.79298 11.22102 36690 ft 437 kts 308°
2026-05-04 10:20 50.81249 11.18454 37012 ft 432 kts 308°
2026-05-04 10:21 50.83176 11.14846 37442 ft 426 kts 308°
2026-05-04 10:21 50.85082 11.11271 37624 ft 426 kts 308°
2026-05-04 10:21 50.88923 11.04044 37743 ft 431 kts 308°
2026-05-04 10:22 50.92772 10.96785 38011 ft 431 kts 308°
2026-05-04 10:22 50.94701 10.93138 38019 ft 433 kts 308°
2026-05-04 10:23 50.98561 10.85829 38010 ft 431 kts 308°
2026-05-04 10:25 51.13757 10.56852 38018 ft 423 kts 307°
2026-05-04 10:25 51.17519 10.49625 38020 ft 424 kts 307°
2026-05-04 10:26 51.21282 10.42380 38023 ft 425 kts 307°
2026-05-04 10:26 51.24950 10.34971 38011 ft 425 kts 300°
2026-05-04 10:27 51.27469 10.26516 38028 ft 423 kts 290°
2026-05-04 10:27 51.29721 10.17799 38024 ft 425 kts 290°
2026-05-04 10:28 51.31989 10.09060 38015 ft 427 kts 290°
2026-05-04 10:28 51.34282 10.00297 38019 ft 428 kts 291°
2026-05-04 10:29 51.36588 9.91499 38015 ft 429 kts 290°
2026-05-04 10:29 51.38875 9.82744 38008 ft 429 kts 290°
2026-05-04 10:30 51.41187 9.73857 37999 ft 429 kts 290°
2026-05-04 10:30 51.43473 9.65034 37997 ft 428 kts 290°
2026-05-04 10:31 51.45732 9.56284 37988 ft 427 kts 290°
2026-05-04 10:32 51.53577 9.25618 37991 ft 421 kts 290°
2026-05-04 10:33 51.55787 9.16904 37991 ft 421 kts 290°
2026-05-04 10:33 51.57987 9.08193 37992 ft 421 kts 290°
2026-05-04 10:34 51.60180 8.99476 37992 ft 421 kts 290°
2026-05-04 10:34 51.62371 8.90738 37992 ft 422 kts 290°
2026-05-04 10:35 51.64560 8.81970 37993 ft 422 kts 290°
2026-05-04 10:35 51.66746 8.73178 37993 ft 423 kts 290°
2026-05-04 10:36 51.68931 8.64357 37990 ft 425 kts 289°
2026-05-04 10:36 51.71103 8.55554 37993 ft 426 kts 289°
2026-05-04 10:37 51.73298 8.46617 37990 ft 426 kts 289°
2026-05-04 10:37 51.75464 8.37777 37991 ft 426 kts 289°
2026-05-04 10:39 51.84710 8.07722 37990 ft 427 kts 295°
2026-05-04 10:40 51.87442 7.99214 37990 ft 426 kts 295°
2026-05-04 10:40 51.90153 7.90687 37991 ft 426 kts 295°
2026-05-04 10:41 51.92853 7.82159 37990 ft 425 kts 295°
2026-05-04 10:41 51.95541 7.73643 37990 ft 424 kts 295°
2026-05-04 10:42 51.98224 7.65117 37992 ft 424 kts 295°